Location: SE Lincoln, NE
(40.7805°N, 96.6275°W)
Time: 05:23:54
(UTC-05:00)

Daily predictions for brighter satellites

Satellite Brightness Start Highest point End
(mag) Time Altitude Azimuth Time Altitude Azimuth Time Altitude Azimuth
Tiangong 1 3.7 00:01:07 10° W 00:01:32 13° WNW 00:01:32 13° WNW
Cosmos 304 Rocket 4.1 00:07:21 10° N 00:12:03 52° ENE 00:12:38 49° E
CZ-2C R/B 3.2 00:09:26 10° NNE 00:14:24 38° E 00:14:33 38° ESE
Sich 1 3.9 00:15:44 37° ENE 00:15:44 37° ENE 00:19:11 10° NNE
SME Rocket 2.8 00:15:47 82° NW 00:15:47 82° NW 00:19:51 10° NNW
Cosmos 1464 Rocket 4.1 00:11:28 10° N 00:17:34 64° E 00:19:07 48° SE
Cosmos 1707 Rocket 4.0 00:15:09 10° N 00:19:32 51° E 00:19:32 51° E
Lacrosse 5 1.8 00:16:26 10° NW 00:21:28 63° SW 00:21:40 62° SW
Abrixas rocket 3.9 00:27:07 10° NW 00:29:09 32° NNW 00:29:09 32° NNW
ARGOS Delta rocket 3.9 00:27:21 10° N 00:32:45 87° E 00:33:27 68° S
CZ-4B R/B 4.4 00:27:46 10° N 00:32:49 47° WNW 00:34:49 32° WSW
Cosmos 968 Rocket 4.4 00:33:59 33° E 00:33:59 33° E 00:38:19 10° NE
Cosmos 1666 Rocket 3.7 00:34:48 65° ENE 00:34:48 65° ENE 00:38:58 10° NNE
CZ-4C R/B 4.2 00:35:26 44° W 00:35:26 44° W 00:39:27 10° NNW
Cosmos 1354 Rocket 4.1 00:36:44 55° SW 00:37:48 71° WNW 00:43:02 10° NNE
Cosmos 1869 3.7 00:35:00 10° N 00:38:19 59° NNE 00:38:19 59° NNE
H-2A ROCKET BODY 4.2 00:34:22 23° SW 00:39:09 46° SSE 01:12:40 10° E
Cosmos 2263 Rocket 2.6 00:37:34 36° SW 00:39:39 58° WNW 00:45:10 10° NNE
Cosmos 1626 3.8 00:41:20 26° WNW 00:41:25 26° WNW 00:44:36 10° NNW
Tsikada Rocket 4.2 00:40:34 48° SE 00:41:48 56° E 00:48:00 10° NNE
Cosmos 540 Rocket 3.3 00:38:11 10° NNW 00:43:22 89° WSW 00:43:45 78° SSE
Cosmos 1400 Rocket 4.2 00:47:01 30° ENE 00:47:01 30° ENE 00:49:51 10° NNE
Cosmos 1805 Rocket 3.9 00:46:23 57° W 00:46:23 57° W 00:50:41 10° N
Meteor 2-10 Rocket 4.4 00:45:20 10° N 00:50:20 39° ENE 00:51:11 37° E
ERBS 4.5 00:48:13 10° NW 00:49:37 22° WNW 00:49:37 22° WNW
Cosmos 1633 Rocket 3.1 00:54:48 73° N 00:54:48 73° N 00:58:46 10° N
Cosmos 2242 Rocket 3.7 00:58:08 10° N 01:02:30 70° ENE 01:02:30 70° ENE
Cosmos 1455 4.1 01:00:29 10° NW 01:03:06 23° WNW 01:03:06 23° WNW
CZ-4B R/B 3.7 01:08:19 20° NE 01:08:19 20° NE 01:10:24 10° NNE
Cosmos 1816 Rocket 4.4 01:09:55 61° SSE 01:11:07 80° E 01:17:26 10° N
Cosmos 783 Rocket 4.4 01:08:41 10° NNW 01:14:01 78° WSW 01:14:14 76° SW
Cosmos 1844 Rocket 2.7 01:14:58 59° ESE 01:15:04 60° ESE 01:20:34 10° NNE
Cosmos 1470 Rocket 3.7 01:21:54 71° N 01:21:54 71° N 01:25:52 10° N
In-Cosmos 22 Rocket 4.0 01:24:09 71° SE 01:24:32 75° E 01:30:05 10° NNE
Cosmos 1892 4.0 01:30:34 36° NE 01:30:34 36° NE 01:33:20 10° NNE
Cosmos 292 Rocket 3.8 01:27:09 10° NNW 01:31:54 74° ENE 01:31:54 74° ENE
CZ-2C R/B 4.0 01:34:09 38° WSW 01:34:43 39° W 01:40:06 10° NNW
H-2A R/B 3.9 01:30:55 10° NE 01:34:30 30° E 01:34:30 30° E
Cosmos 1777 Rocket 4.1 01:35:32 58° ESE 01:35:32 58° ESE 01:40:41 10° NNE
CZ-4C R/B 2.0 01:36:01 72° SW 01:36:36 85° NW 01:42:33 10° NNE
ALOS 2 3.9 01:39:34 30° WNW 01:39:34 30° WNW 01:42:51 10° NNW
Cosmos 2084 Rocket 4.1 01:37:15 10° NNW 01:40:19 46° NNE 01:40:19 46° NNE
Okean 1-7 4.3 01:41:06 10° NNE 01:45:01 32° ENE 01:45:10 32° E
Meteor 1-26 Rocket 4.0 01:48:05 10° NNW 01:53:39 81° W 01:54:10 72° SSW
CZ-2C R/B 4.1 01:50:04 10° N 01:54:28 27° WNW 01:56:05 23° W
Cosmos 2278 Rocket 2.4 01:59:36 54° SE 02:00:04 56° ESE 02:05:36 10° NNE
SL-27 R/B 4.1 01:58:37 10° N 02:00:52 31° NNE 02:00:52 31° NNE
Landsat 5 3.7 02:03:49 66° NW 02:03:49 66° NW 02:07:32 10° NNW
Cosmos 1844 3.7 02:03:37 60° WSW 02:04:32 72° WNW 02:10:09 10° NNE
OceanSat 1 rocket 4.5 02:00:29 10° NNE 02:05:21 86° ESE 02:05:26 85° SSE
Cosmos 1833 Rocket 4.5 02:06:17 10° N 02:11:04 27° NE 02:15:49 10° ESE
SeaSat 1 4.0 02:09:18 16° ESE 02:12:26 32° NE 02:16:49 10° N
COSMOS 2406 3.5 02:07:02 10° NW 02:12:29 48° WSW 02:12:31 48° WSW
Cosmos 1315 Rocket 3.9 02:14:38 36° NW 02:14:38 36° NW 02:17:44 10° N
Cosmos 1634 Rocket 4.2 02:08:27 10° NNW 02:14:27 54° W 02:15:29 48° SW
SL-24 R/B - RUBIN 2 4.2 02:20:03 10° NW 02:24:51 52° W 02:24:51 52° W
Meteor 2-3 Rocket 4.2 02:27:13 44° WSW 02:28:22 50° WNW 02:34:02 10° N
Cosmos 2180 Rocket 4.4 02:26:06 10° N 02:32:25 81° W 02:34:09 51° S
Cosmos 2082 Rocket 3.2 02:28:38 10° N 02:33:58 42° ENE 02:38:06 16° SE
Cosmos 2221 Rocket 3.7 02:30:28 10° NNW 02:34:41 64° WNW 02:34:41 64° WNW
Cosmos 1782 2.9 02:31:30 10° N 02:35:13 74° NNW 02:35:13 74° NNW
Cosmos 1825 2.4 02:37:50 66° NNE 02:37:50 66° NNE 02:41:13 10° N
Cosmos 923 Rocket 3.9 02:32:48 10° NNW 02:37:59 69° WSW 02:38:27 64° SW
CZ-4B R/B 3.8 02:41:54 16° WNW 02:41:54 16° WNW 02:43:02 10° NW
Timation 1 Rocket 4.2 02:39:32 54° SSW 02:40:59 89° WNW 02:47:00 10° NNE
Helios 1A Rocket 3.1 02:38:51 10° NNE 02:42:57 63° E 02:42:59 63° ESE
Meteor 1-27 Rocket 4.1 02:41:17 10° N 02:47:13 65° ENE 02:49:47 34° SSE
Meteor 2-6 Rocket 4.1 02:43:38 10° NNW 02:49:11 81° W 02:50:35 53° S
Cosmos 1607 4.0 02:50:39 47° S 02:52:22 68° ESE 02:58:35 10° NE
Cosmos 1346 Rocket 4.2 02:49:40 10° NNW 02:52:13 28° WNW 02:52:13 28° WNW
Aureole 1 Rocket 4.3 02:48:30 10° NNW 02:55:19 84° WSW 02:59:50 30° SSE
Cosmos 1408 3.2 02:57:22 46° NW 02:57:22 46° NW 03:00:22 10° N
USA 267 4.5 02:53:07 10° ENE 02:58:25 26° SE 03:00:23 22° SSE
BREEZE-M DEB (TANK) 4.3 02:54:55 10° WNW 03:05:00 58° N 03:08:34 10° E
Cosmos 1932 4.5 03:03:20 43° SSW 03:05:39 83° ESE 03:12:15 10° NNE
Cosmos 2112 Rocket 4.1 03:03:03 10° NNW 03:08:13 56° WSW 03:09:08 49° SW
H-2A R/B 4.1 03:06:35 10° NNW 03:10:19 26° WNW 03:11:07 24° W
ADEOS Rocket 3.8 03:03:02 10° NNE 03:10:36 58° E 03:14:43 27° SSE
Nadezhda 4 Rocket 4.2 03:11:11 39° SW 03:13:23 60° W 03:19:39 10° N
ATLAS 3B R/B 3.0 03:14:12 34° S 03:17:38 65° ESE 03:24:47 10° NE
GP-B 3.2 03:14:27 10° N 03:18:54 74° E 03:20:11 45° SSE
SL-16 R/B 3.1 03:15:22 11° SE 03:21:06 56° ENE 03:27:12 10° N
Cosmos 1680 Rocket 4.2 03:16:31 10° NW 03:21:18 36° WSW 03:21:45 35° WSW
Resurs 1-4 Rocket 3.0 03:17:04 10° NNE 03:22:07 42° E 03:24:58 23° SSE
Cosmos 1606 4.3 03:22:33 10° NW 03:25:06 23° WNW 03:25:06 23° WNW
CZ-4C R/B 4.4 03:22:16 10° WNW 03:26:10 19° NNW 03:30:26 10° NNE
Cosmos 1937 Rocket 3.4 03:27:26 42° SSW 03:29:14 89° WNW 03:34:26 10° NNE
IRS-1C 4.1 03:28:05 10° NNE 03:33:28 83° ESE 03:35:52 34° S
CZ-2D R/B 2.7 03:28:57 10° NNE 03:34:14 54° E 03:37:19 24° SSE
Cosmos 1461 4.4 03:33:30 20° WNW 03:34:48 24° NW 03:38:05 10° N
Cosmos 1975 Rocket 4.4 03:31:19 10° N 03:35:19 35° ENE 03:39:09 11° SE
Cosmos 1340 2.8 03:31:55 10° NNW 03:35:36 51° W 03:35:47 51° WSW
Cosmos 44 3.3 03:34:11 41° WSW 03:35:39 65° WNW 03:40:08 10° NNE
Geosat 3.9 03:32:29 10° NNE 03:37:33 87° ESE 03:39:39 36° SSW
Cosmos 1733 Rocket 3.8 03:39:40 34° WSW 03:40:34 38° WNW 03:44:41 10° N
Cosmos 44 Rocket 3.8 03:39:16 32° WSW 03:41:09 49° NW 03:45:49 10° NNE
Cosmos 1898 Rocket 3.9 03:39:13 33° WSW 03:41:11 50° WNW 03:46:18 10° N
AQUA 3.8 03:36:36 10° N 03:41:19 70° WNW 03:43:07 38° SSW
Cosmos 2278 Rocket 3.9 03:41:26 15° W 03:44:31 23° NW 03:48:56 10° N
COBE Rocket 3.8 03:41:36 10° N 03:46:24 81° WNW 03:48:37 33° SSW
Cosmos 990 Rocket 3.9 03:44:33 35° SSW 03:46:43 73° WNW 03:51:54 10° NNE
SeaSat 1 3.1 03:49:04 32° SW 03:49:52 34° WSW 03:54:22 10° NW
ARIANE 5 R/B 2.6 03:48:13 10° NNE 03:53:13 72° ESE 03:56:11 25° S
Spot 4 Rocket 4.0 03:48:13 10° NNE 03:53:24 86° ESE 03:56:17 27° SSW
Cosmos 1833 Rocket 3.0 03:49:49 10° NW 03:55:10 45° WSW 03:57:50 27° SSW
Cosmos 2369 Rocket 3.4 03:51:07 15° SSE 03:55:11 35° ESE 04:00:15 10° NE
Sich 1 Rocket 3.7 03:53:51 34° SSW 03:55:46 68° W 04:00:21 10° N
Cosmos 1943 Rocket 4.3 03:52:55 10° SE 03:56:50 20° E 04:00:46 10° NE
NPP 4.2 03:52:12 10° N 03:57:17 44° WNW 03:59:53 26° SW
S3M 4.1 03:52:47 10° N 03:59:02 75° E 04:05:08 10° SSE
IRS-1D 3.4 03:56:12 10° NNE 04:01:21 86° WNW 04:04:18 25° SSW
Cosmos 1812 2.8 04:00:25 10° N 04:04:17 78° E 04:06:56 19° SSE
Cosmos 1417 Rocket 4.4 04:00:05 10° N 04:06:12 75° W 04:11:17 16° S
USA 238 DEB 3.7 04:02:09 24° SW 04:06:38 86° NW 04:13:41 10° NE
USA 238 3.7 04:02:15 24° SW 04:06:44 87° NW 04:13:47 10° NE
Timation 2 Rocket 4.0 04:00:48 10° NNW 04:06:45 59° WSW 04:12:53 10° S
BREEZE-M R/B 4.4 04:01:03 10° WNW 04:07:37 44° NNE 04:11:01 10° E
COSMOS 2487 3.7 04:06:53 10° NW 04:09:40 24° W 04:09:40 24° W
Meteor 1-14 Rocket 4.3 04:06:54 22° SSW 04:10:47 75° W 04:16:48 10° N
Meteor 1-25 Rocket 4.2 04:09:04 19° S 04:13:07 88° E 04:18:47 10° N
SL-08 R/B 4.4 04:12:29 24° SW 04:13:57 28° W 04:18:07 10° NW
Okean 3 4.1 04:10:45 10° NNW 04:14:42 38° W 04:16:24 26° SW
Cosmos 2082 Rocket 3.2 04:13:10 10° NW 04:17:48 27° WSW 04:19:53 21° SW
CZ-3B DEB 4.0 04:05:09 10° NW 04:18:30 79° SW 04:29:11 10° SE
ADEOS II 4.1 04:15:19 10° NE 04:19:30 23° E 04:23:39 10° SE
Cosmos 1908 Rocket 4.5 04:17:58 23° WSW 04:19:54 34° WNW 04:23:58 10° N
Cosmos 2344 3.8 04:15:39 17° SSW 04:21:43 67° ESE 04:29:59 10° NE
Okean 2 Rocket 3.0 04:22:03 20° SSW 04:25:06 77° W 04:29:32 10° N
Cosmos 1437 3.1 04:28:27 10° NNW 04:31:34 43° W 04:33:16 22° SSW
Gbstr 26 Del rocket 4.2 04:31:49 14° S 04:34:11 24° SE 04:37:17 10° ENE
Cosmos 372 Rocket 4.1 04:30:13 14° SSW 04:34:39 78° ESE 04:39:51 10° NNE
Cosmos 1553 Rocket 4.3 04:31:45 10° NNW 04:37:53 51° W 04:44:02 10° SSW
Okean 1 3.3 04:33:56 10° N 04:38:01 76° W 04:42:03 10° S
USA 267 3.3 04:35:17 10° NE 04:41:50 83° NW 04:47:44 13° SW
Cosmos 1782 Rocket 4.5 04:39:47 17° SW 04:42:33 34° WNW 04:46:39 10° N
NOSS 3-2 (C) 3.7 04:40:55 13° SSW 04:46:16 70° ESE 04:52:46 10° NE
CZ-2D R/B 3.7 04:43:02 10° N 04:47:24 66° WNW 04:51:27 12° SSW
NOSS 3-2 (A) 3.5 04:42:33 15° SSW 04:47:42 89° NW 04:54:17 10° NE
SL-24 R/B 4.1 04:44:37 10° N 04:48:44 79° WNW 04:53:26 10° SSW
Cosmos 158 Rocket 3.8 04:45:28 10° NNW 04:50:36 77° WSW 04:55:33 10° SSE
Cosmos 1346 3.9 04:50:32 10° NW 04:52:53 26° W 04:54:22 16° SW
ADEOS 4.5 04:48:54 10° N 04:53:35 34° WNW 04:57:50 12° SW
Okean O Rocket 3.1 04:50:28 10° NNE 04:54:30 35° E 04:58:32 10° SSE
Meteor 1-13 Rocket 4.3 04:50:04 10° N 04:55:36 80° E 05:01:10 10° SSE
Cosmos 1633 2.9 04:54:34 13° SSW 04:57:39 47° W 05:01:12 10° N
Meteor 1-11 Rocket 4.0 04:53:16 10° S 04:58:55 74° E 05:04:44 10° NNE
Resurs 1-4 Rocket 3.4 04:57:25 10° NNW 05:01:41 25° WNW 05:05:57 10° WSW
Cosmos 1048 Rocket 4.2 04:59:06 10° NNW 05:04:22 57° WSW 05:09:36 10° S
SL-16 R/B 3.7 05:00:27 11° SW 05:05:04 23° W 05:09:52 10° NW
Cosmos 1441 Rocket 3.3 05:02:25 10° NNW 05:06:25 71° W 05:10:23 10° S
CENTAUR R/B 3.9 05:03:07 10° S 05:08:21 33° ESE 05:14:09 10° NE
ATLAS 3B R/B 4.0 05:02:16 10° WSW 05:08:48 33° NW 05:15:08 10° NNE
UNKNOWN OBJECT B 3.9 05:07:09 10° NNW 05:10:19 26° WNW 05:13:25 10° SW
Cosmos 2151 Rocket 4.0 05:08:34 10° SSW 05:12:56 47° W 05:17:20 10° N
CZ-2D R/B 3.7 05:09:59 10° NNW 05:13:53 21° WNW 05:17:48 10° WSW
USA 234 4.2 05:09:19 10° ESE 05:15:40 55° NE 05:22:01 10° NW
Cosmos 2251 Rocket 4.3 05:17:09 10° NNW 05:22:24 58° ENE 05:27:33 10° SSE
USA 161 2.5 05:21:44 10° SSW 05:23:34 21° W 05:25:32 10° NW
